{"data":{"norad_id":62529,"intl_designator":"2025-004U","name":"STARLINK-32789","alt_names":[],"object_type":"PAYLOAD","status":"ACTIVE","operator":null,"country":"US","launch_date":"2025-01-08","launch_site_code":"AFETR","launch_vehicle":null,"mission":null,"orbit_class":"UNKNOWN","rcs_meters":null,"size_class":null,"mass_kg":null,"dimensions":null,"purposes":["comms"],"wikipedia_slug":null,"has_3d_model":false,"image_url":null,"decayed_at":null,"tle_current":{"epoch":"2026-09-21T11:57:02.554272Z","epoch_age_seconds":84925,"freshness":"FRESH","line1":"1 62529U 25004U   26264.49794623  .00018182  00000+0  66827-3 0  9990","line2":"2 62529  42.9994 194.1545 0001849 269.0630  91.0010 15.27596044 96403","mean_motion":15.27596044,"eccentricity":0.0001849,"inclination_deg":42.9994,"raan_deg":194.1545,"arg_perigee_deg":269.063,"mean_anomaly_deg":91.001,"bstar":0.00066827,"rev_number":9640,"period_min":94.265758651048,"perigee_km":481.73243052597,"apogee_km":484.26967937869,"semimajor_km":6861.1380549523,"source":"CELESTRAK","updated_at":"2026-09-22T09:00:49.625152Z"}}}